Weather History for KELO - April, 2013

Change the Weather History Date:

Monday, April 22, 2013

  Actual Average Record
Temperature  
Mean Temperature 34 °F -  
Max Temperature 37 °F 51 °F 68 °F (1998)
Min Temperature 30 °F 27 °F 21 °F (1997)
Degree Days  
Heating Degree Days 32    
Moisture  
Dew Point 24 °F    
Average Humidity 71    
Maximum Humidity 100    
Minimum Humidity 52    
Precipitation  
Precipitation 0.00 in - - ()
Sea Level Pressure  
Sea Level Pressure 30.15 in    
Wind  
Wind Speed 6 mph (WNW)    
Max Wind Speed 13 mph    
Max Gust Speed 18 mph    
Visibility 10 miles    
Events      
Averages and records for this station are not official NWS values.
T = Trace of Precipitation, MM = Missing Value Source: NWS Daily Summary

Daily Weather History Graph

Daily Weather History Graph

Search for Another Location

Airport or City:

Trip Planner

Search our weather history database for the weather conditions in past years. The results will help you decide how hot, cold, wet, or windy it might be!

Date:

Astronomy

Apr. 22, 2013 Rise Set
Actual Time 6:04 AM CDT 8:07 PM CDT
Civil Twilight 5:31 AM CDT 8:41 PM CDT
Nautical Twilight 4:50 AM CDT 9:22 PM CDT
Astronomical Twilight 4:04 AM CDT 10:09 PM CDT
Moon 4:44 PM CDT (4/22) 4:14 AM CDT (4/22)
Length of Visible Light 15h 09m
Length of Day
14h 03m
Waxing Gibbous, 88% of the Moon is Illuminated
Apr 22
Waxing Gibbous
Apr 25
Full
May 2
Last Quarter
May 9
New
May 17
First Quarter

Hourly Weather History & Observations

Time (CDT) Temp. Windchill Dew Point Humidity Pressure Visibility Wind Dir Wind Speed Gust Speed Precip Events Conditions
12:12 AM 33.8 °F 27.7 °F 33.8 °F 100% 30.02 in 2.5 mi WSW 6.9 mph - N/A   Mist
12:33 AM 33.8 °F 27.0 °F 32.0 °F 93% 30.03 in 4.0 mi WSW 8.1 mph - N/A   Mist
12:53 AM 33.8 °F 25.8 °F 32.0 °F 93% 30.04 in 4.0 mi West 10.4 mph 16.1 mph N/A   Light Drizzle
1:12 AM 33.8 °F 27.0 °F 32.0 °F 93% 30.04 in 10.0 mi West 8.1 mph - N/A   Unknown
1:33 AM 33.8 °F 27.7 °F 32.0 °F 93% 30.04 in 10.0 mi West 6.9 mph - N/A   Unknown
1:53 AM 33.8 °F 29.6 °F 30.2 °F 87% 30.04 in 10.0 mi West 4.6 mph - N/A   Unknown
2:12 AM 33.8 °F 29.6 °F 30.2 °F 87% 30.04 in 10.0 mi WSW 4.6 mph - N/A   Unknown
2:33 AM 32.0 °F 24.8 °F 30.2 °F 93% 30.04 in 10.0 mi West 8.1 mph - N/A   Unknown
2:53 AM 32.0 °F 25.6 °F 30.2 °F 93% 30.05 in 10.0 mi West 6.9 mph - N/A   Unknown
3:12 AM 32.0 °F 25.6 °F 28.4 °F 87% 30.06 in 10.0 mi West 6.9 mph - N/A   Unknown
3:33 AM 32.0 °F 26.4 °F 28.4 °F 87% 30.06 in 10.0 mi West 5.8 mph - N/A   Unknown
3:53 AM 32.0 °F 24.2 °F 28.4 °F 87% 30.07 in 10.0 mi West 9.2 mph - N/A   Unknown
4:12 AM 32.0 °F 24.2 °F 28.4 °F 87% 30.08 in 10.0 mi West 9.2 mph - N/A   Unknown
4:33 AM 30.2 °F 22.6 °F 28.4 °F 93% 30.09 in 10.0 mi West 8.1 mph 18.4 mph N/A   Unknown
4:53 AM 30.2 °F 22.6 °F 28.4 °F 93% 30.10 in 10.0 mi West 8.1 mph - N/A   Unknown
5:13 AM 30.2 °F 24.3 °F 28.4 °F 93% 30.12 in 10.0 mi WNW 5.8 mph - N/A   Unknown
5:33 AM 30.2 °F 22.6 °F 26.6 °F 86% 30.11 in 10.0 mi WNW 8.1 mph 17.3 mph N/A   Unknown
5:53 AM 30.2 °F 24.3 °F 26.6 °F 86% 30.12 in 10.0 mi WNW 5.8 mph - N/A   Unknown
6:12 AM 30.2 °F 25.4 °F 26.6 °F 86% 30.13 in 10.0 mi WNW 4.6 mph - N/A   Unknown
6:33 AM 30.2 °F 24.3 °F 26.6 °F 86% 30.13 in 10.0 mi WNW 5.8 mph - N/A   Unknown
6:53 AM 30.2 °F 25.4 °F 26.6 °F 86% 30.14 in 10.0 mi West 4.6 mph - N/A   Unknown
7:12 AM 30.2 °F 21.3 °F 26.6 °F 86% 30.15 in 10.0 mi West 10.4 mph 16.1 mph N/A   Unknown
7:33 AM 30.2 °F 22.6 °F 24.8 °F 80% 30.16 in 10.0 mi WNW 8.1 mph - N/A   Unknown
7:53 AM 30.2 °F 21.9 °F 24.8 °F 80% 30.16 in 10.0 mi West 9.2 mph 17.3 mph N/A   Unknown
8:13 AM 32.0 °F 24.2 °F 24.8 °F 75% 30.16 in 10.0 mi NW 9.2 mph - N/A   Unknown
8:32 AM 32.0 °F 24.2 °F 24.8 °F 75% 30.17 in 10.0 mi WNW 9.2 mph - N/A   Unknown
8:52 AM 30.2 °F 25.4 °F 24.8 °F 80% 30.17 in 10.0 mi NW 4.6 mph - N/A   Unknown
9:13 AM 33.8 °F 27.0 °F 24.8 °F 70% 30.17 in 10.0 mi WNW 8.1 mph - N/A   Unknown
9:32 AM 33.8 °F 24.8 °F 23.0 °F 65% 30.17 in 10.0 mi NNW 12.7 mph 18.4 mph N/A   Scattered Clouds
9:53 AM 33.8 °F 26.4 °F 23.0 °F 65% 30.17 in 10.0 mi NW 9.2 mph - N/A   Scattered Clouds
10:13 AM 33.8 °F 29.6 °F 23.0 °F 65% 30.17 in 10.0 mi NNW 4.6 mph 16.1 mph N/A   Scattered Clouds
10:31 AM 33.8 °F 27.0 °F 21.2 °F 60% 30.18 in 10.0 mi NW 8.1 mph 16.1 mph N/A   Clear
10:53 AM 33.8 °F 27.7 °F 23.0 °F 65% 30.20 in 10.0 mi NW 6.9 mph - N/A   Scattered Clouds
11:13 AM 33.8 °F 27.0 °F 23.0 °F 65% 30.19 in 10.0 mi WNW 8.1 mph - N/A   Scattered Clouds
11:33 AM 33.8 °F 29.6 °F 23.0 °F 65% 30.19 in 10.0 mi NNW 4.6 mph - N/A   Scattered Clouds
11:52 AM 35.6 °F 30.7 °F 21.2 °F 56% 30.20 in 10.0 mi WNW 5.8 mph - N/A   Clear
12:13 PM 35.6 °F 29.9 °F 21.2 °F 56% 30.20 in 10.0 mi WNW 6.9 mph - N/A   Clear
12:33 PM 35.6 °F 30.7 °F 21.2 °F 56% 30.20 in 10.0 mi NW 5.8 mph 9.2 mph N/A   Scattered Clouds
12:52 PM 35.6 °F 29.9 °F 21.2 °F 56% 30.20 in 10.0 mi North 6.9 mph - N/A   Clear
1:13 PM 35.6 °F 32.8 °F 21.2 °F 56% 30.21 in 10.0 mi WNW 3.5 mph - N/A   Clear
1:33 PM 35.6 °F 31.7 °F 19.4 °F 52% 30.21 in 10.0 mi NW 4.6 mph - N/A   Clear
1:52 PM 35.6 °F 31.7 °F 21.2 °F 56% 30.21 in 10.0 mi WNW 4.6 mph - N/A   Clear
2:13 PM 35.6 °F 29.2 °F 21.2 °F 56% 30.20 in 10.0 mi NW 8.1 mph - N/A   Scattered Clouds
2:33 PM 37.4 °F 32.1 °F 21.2 °F 52% 30.19 in 10.0 mi NNW 6.9 mph - N/A   Clear
2:52 PM 35.6 °F 32.8 °F 21.2 °F 56% 30.19 in 10.0 mi North 3.5 mph - N/A   Clear
3:13 PM 35.6 °F 29.9 °F 21.2 °F 56% 30.19 in 10.0 mi NNW 6.9 mph - N/A   Scattered Clouds
3:32 PM 35.6 °F 31.7 °F 21.2 °F 56% 30.18 in 10.0 mi North 4.6 mph - N/A   Scattered Clouds
3:53 PM 35.6 °F 29.9 °F 19.4 °F 52% 30.19 in 10.0 mi NW 6.9 mph - N/A   Clear
4:13 PM 35.6 °F 29.9 °F 19.4 °F 52% 30.19 in 10.0 mi WNW 6.9 mph - N/A   Clear
4:32 PM 35.6 °F 31.7 °F 19.4 °F 52% 30.18 in 10.0 mi NW 4.6 mph - N/A   Scattered Clouds
4:53 PM 35.6 °F 32.8 °F 21.2 °F 56% 30.18 in 10.0 mi NNW 3.5 mph - N/A   Scattered Clouds
5:13 PM 35.6 °F 29.2 °F 21.2 °F 56% 30.18 in 10.0 mi NW 8.1 mph - N/A   Clear
5:32 PM 35.6 °F 29.9 °F 21.2 °F 56% 30.18 in 10.0 mi NW 6.9 mph - N/A   Clear
5:53 PM 35.6 °F - 21.2 °F 56% 30.17 in 10.0 mi Calm Calm - N/A   Scattered Clouds
6:13 PM 35.6 °F 31.7 °F 21.2 °F 56% 30.18 in 10.0 mi North 4.6 mph - N/A   Scattered Clouds
6:32 PM 35.6 °F 30.7 °F 21.2 °F 56% 30.17 in 10.0 mi North 5.8 mph - N/A   Scattered Clouds
6:53 PM 35.6 °F 32.8 °F 21.2 °F 56% 30.18 in 10.0 mi North 3.5 mph - N/A   Clear
7:13 PM 35.6 °F 31.7 °F 21.2 °F 56% 30.18 in 10.0 mi NNW 4.6 mph - N/A   Scattered Clouds
7:32 PM 33.8 °F - 21.2 °F 60% 30.19 in 10.0 mi Calm Calm - N/A   Scattered Clouds
7:53 PM 33.8 °F 30.8 °F 21.2 °F 60% 30.19 in 10.0 mi NNW 3.5 mph - N/A   Mostly Cloudy
8:13 PM 33.8 °F 30.8 °F 21.2 °F 60% 30.20 in 10.0 mi NNW 3.5 mph - N/A   Overcast
8:32 PM 33.8 °F - 21.2 °F 60% 30.20 in 10.0 mi Calm Calm - N/A   Overcast
8:53 PM 33.8 °F - 21.2 °F 60% 30.20 in 10.0 mi Calm Calm - N/A   Overcast
9:13 PM 33.8 °F - 23.0 °F 65% 30.20 in 10.0 mi Calm Calm - N/A   Overcast
9:32 PM 32.0 °F - 23.0 °F 69% 30.19 in 10.0 mi Calm Calm - N/A   Overcast
9:53 PM 32.0 °F - 23.0 °F 69% 30.18 in 10.0 mi Calm Calm - N/A   Overcast
10:13 PM 32.0 °F - 23.0 °F 69% 30.18 in 10.0 mi Calm Calm - N/A   Overcast
10:32 PM 32.0 °F - 23.0 °F 69% 30.17 in 10.0 mi Calm Calm - N/A   Overcast
10:53 PM 30.2 °F - 23.0 °F 75% 30.16 in 10.0 mi Calm Calm - N/A   Overcast
11:13 PM 30.2 °F - 23.0 °F 75% 30.16 in 10.0 mi Calm Calm - N/A   Overcast
11:32 PM 30.2 °F - 23.0 °F 75% 30.16 in 10.0 mi Calm Calm - N/A   Overcast
11:53 PM 30.2 °F - 23.0 °F 75% 30.16 in 10.0 mi Calm Calm - N/A   Overcast